FW5864 Weather Reports


time (UTC)temp
C
wind
direction
speed
KPH
gust
KPH
rain 1hr
cm
rain 24hr
cm
rain mn
cm
humidity
%
barometer
mb
20260504151007 22 153 4.8 19.3 0.00 0.00 0.00 58 1003.3
20260504150507 22 238 4.8 19.3 0.00 0.00 0.00 60 1003.4
20260504141007 19 171 6.4 8.0 0.00 0.00 0.00 65 1003.8
20260504140507 18 172 3.2 8.0 0.00 0.00 0.00 66 1003.9
20260504130507 14 168 0.0 9.7 0.00 0.00 0.00 75 1004.6
20260504110506 5 239 0.0 0.0 0.00 0.00 0.00 86 1005.0
20260504100505 6 239 0.0 0.0 0.00 0.00 0.00 84 1005.3
20260504082004 8 237 0.0 3.2 0.00 0.00 0.00 79 1006.0
20260504081004 8 237 3.2 3.2 0.00 0.00 0.00 82 1006.0
20260504080504 8 241 1.6 3.2 0.00 0.00 0.00 81 1006.0
20260504050502 12 234 1.6 4.8 0.00 0.00 0.00 75 1007.8
20260504050002 12 231 3.2 4.8 0.00 0.00 0.00 74 1007.7
20260504045502 12 232 0.0 3.2 0.00 0.00 0.00 74 1007.7
20260504045002 12 232 1.6 3.2 0.00 0.00 0.00 74 1007.7
20260504044502 12 229 0.0 1.6 0.00 0.00 0.00 74 1007.7
20260504044002 12 229 1.6 1.6 0.00 0.00 0.00 73 1007.7
20260504043502 12 229 0.0 1.6 0.00 0.00 0.00 73 1007.7
20260504043002 12 229 0.0 3.2 0.00 0.00 0.00 73 1007.7
20260504042502 12 229 0.0 3.2 0.00 0.00 0.00 73 1007.8
20260504042002 13 229 1.6 3.2 0.00 0.00 0.00 72 1007.9
20260504041502 13 224 1.6 3.2 0.00 0.00 0.00 72 1007.9
20260504041002 13 229 1.6 4.8 0.00 0.00 0.00 72 1008.0
20260504040502 13 230 1.6 4.8 0.00 0.00 0.00 71 1008.0
20260504040002 13 222 1.6 3.2 0.00 0.00 0.00 71 1008.1
20260504035502 13 228 1.6 3.2 0.00 0.00 0.00 70 1008.0
20260504035002 14 223 3.2 6.4 0.00 0.00 0.00 69 1008.0
20260504034501 14 223 3.2 6.4 0.00 0.00 0.00 69 1008.1
20260504033502 14 222 3.2 6.4 0.00 0.00 0.00 68 1008.1
20260504032501 14 227 4.8 8.0 0.00 0.00 0.00 68 1008.2
20260504032001 14 232 3.2 8.0 0.00 0.00 0.00 69 1008.1
20260504031501 14 218 3.2 6.4 0.00 0.00 0.00 68 1008.1
20260504030501 14 231 4.8 6.4 0.00 0.00 0.00 68 1008.2
20260504030001 13 239 3.2 4.8 0.00 0.00 0.00 68 1008.1
20260504025501 14 223 1.6 4.8 0.00 0.00 0.00 67 1008.0
20260504025001 14 205 1.6 3.2 0.00 0.00 0.00 66 1008.0
20260504024501 14 227 1.6 3.2 0.00 0.00 0.00 65 1008.0
20260504024001 14 241 3.2 6.4 0.00 0.00 0.00 65 1008.0
20260504023001 15 222 0.0 4.8 0.00 0.00 0.00 63 1008.1
20260504022501 15 215 3.2 4.8 0.00 0.00 0.00 63 1008.0
20260504022001 15 219 3.2 4.8 0.00 0.00 0.00 62 1008.0
20260504021000 15 196 1.6 4.8 0.00 0.00 0.00 60 1008.1
20260504020500 16 222 1.6 6.4 0.00 0.00 0.00 59 1008.0
20260504015500 16 217 4.8 8.0 0.00 0.00 0.00 57 1008.0
20260504015000 16 242 1.6 8.0 0.00 0.00 0.00 56 1007.9
20260504014501 16 249 3.2 9.7 0.00 0.00 0.00 56 1007.9
20260504014000 17 234 1.6 11.3 0.00 0.00 0.00 56 1008.0
20260504013500 17 240 3.2 11.3 0.00 0.00 0.00 56 1008.0
20260504013000 17 226 4.8 9.7 0.00 0.00 0.00 56 1007.9
20260504012500 17 217 8.0 9.7 0.00 0.00 0.00 55 1007.9
20260504011500 17 215 6.4 11.3 0.00 0.00 0.00 55 1007.9
20260504011000 17 206 6.4 9.7 0.00 0.00 0.00 54 1007.8
20260504010500 17 231 4.8 9.7 0.00 0.00 0.00 54 1007.8
20260504010000 18 254 4.8 11.3 0.00 0.00 0.00 54 1007.7
20260504005000 18 276 9.7 12.9 0.00 0.00 0.00 53 1007.7
20260504003959 19 233 4.8 16.1 0.00 0.00 0.00 52 1007.7
20260504003500 19 249 8.0 14.5 0.00 0.00 0.00 51 1007.8
20260504002959 20 244 11.3 12.9 0.00 0.00 0.00 51 1007.8
20260504001459 20 257 6.4 16.1 0.00 0.00 0.00 49 1007.9
20260504000959 20 250 8.0 16.1 0.00 0.00 0.00 48 1007.9
20260503235959 21 224 8.0 20.9 0.00 0.00 0.00 47 1008.0
20260503235459 21 258 11.3 25.7 0.00 0.00 0.00 47 1007.9
20260503234959 21 238 17.7 25.7 0.00 0.00 0.00 46 1007.8
20260503234459 21 235 6.4 22.5 0.00 0.00 0.00 46 1007.8
20260503233959 21 249 14.5 27.4 0.00 0.00 0.00 47 1007.8
20260503232959 21 265 22.5 24.1 0.00 0.00 0.00 46 1007.7
20260503232529 21 221 12.9 24.1 0.00 0.00 0.00 46 1007.8
20260503231959 22 233 17.7 24.1 0.00 0.00 0.00 45 1007.9
20260503231459 22 214 8.0 22.5 0.00 0.00 0.00 47 1008.0
20260503230959 21 254 11.3 22.5 0.00 0.00 0.00 48 1007.9
20260503230459 21 251 12.9 20.9 0.00 0.00 0.00 49 1007.9
20260503225958 21 237 11.3 22.5 0.00 0.00 0.00 49 1007.9
20260503225459 21 257 16.1 22.5 0.00 0.00 0.00 49 1007.9
20260503224958 21 254 17.7 22.5 0.00 0.00 0.00 48 1007.9
20260503224458 21 244 16.1 25.7 0.00 0.00 0.00 48 1008.0
20260503223959 20 257 20.9 27.4 0.00 0.00 0.00 48 1008.0
20260503223459 20 234 11.3 30.6 0.00 0.00 0.00 48 1007.9
20260503222959 21 252 19.3 30.6 0.00 0.00 0.00 48 1008.0
20260503222528 21 252 19.3 29.0 0.00 0.00 0.00 48 1008.0
20260503221958 21 246 16.1 29.0 0.00 0.00 0.00 47 1008.0
20260503220458 21 263 19.3 37.0 0.00 0.00 0.00 50 1008.3
20260503215958 21 242 20.9 37.0 0.00 0.00 0.00 48 1008.2
20260503214958 21 252 20.9 33.8 0.00 0.00 0.00 48 1008.1
20260503214458 21 253 29.0 33.8 0.00 0.00 0.00 48 1008.2
20260503213958 21 257 24.1 33.8 0.00 0.00 0.00 48 1008.2
20260503213458 21 251 29.0 33.8 0.00 0.00 0.00 48 1008.4
20260503212958 21 262 22.5 37.0 0.00 0.00 0.00 48 1008.4
20260503211957 21 232 29.0 33.8 0.00 0.00 0.00 48 1008.4
20260503211458 21 248 20.9 40.2 0.00 0.00 0.00 47 1008.5
20260503210957 21 271 22.5 46.7 0.00 0.00 0.00 48 1008.5
20260503210528 21 268 24.1 46.7 0.00 0.00 0.00 46 1008.5
20260503205957 21 260 33.8 33.8 0.00 0.00 0.00 47 1008.6
20260503205457 21 248 24.1 37.0 0.00 0.00 0.00 49 1008.7
20260503204957 21 271 12.9 37.0 0.00 0.00 0.00 50 1008.7
20260503204457 20 226 14.5 29.0 0.00 0.00 0.00 50 1008.8
20260503203957 20 225 25.7 33.8 0.00 0.00 0.00 49 1008.8
20260503203457 20 250 19.3 37.0 0.00 0.00 0.00 49 1008.8
20260503202957 20 250 19.3 37.0 0.00 0.00 0.00 48 1009.0
20260503202457 21 223 14.5 43.5 0.00 0.00 0.00 47 1009.2
20260503201957 21 243 20.9 43.5 0.00 0.00 0.00 48 1009.2
20260503201457 20 254 19.3 38.6 0.00 0.00 0.00 48 1009.1
20260503200956 20 170 24.1 41.8 0.00 0.00 0.00 48 1008.9
20260503195957 20 210 19.3 33.8 0.00 0.00 0.00 48 1008.9
20260503195456 20 254 30.6 35.4 0.00 0.00 0.00 50 1008.8
20260503194457 19 265 14.5 38.6 0.00 0.00 0.00 51 1009.3
20260503193956 20 222 16.1 38.6 0.00 0.00 0.00 51 1009.3
20260503193456 20 255 30.6 30.6 0.00 0.00 0.00 50 1009.3
20260503192956 20 254 14.5 33.8 0.00 0.00 0.00 48 1009.2
20260503192456 20 215 16.1 41.8 0.00 0.00 0.00 48 1009.0
20260503191956 20 263 32.2 41.8 0.00 0.00 0.00 48 1009.1
20260503191457 20 229 11.3 38.6 0.00 0.00 0.00 46 1009.4
20260503190956 21 237 17.7 38.6 0.00 0.00 0.00 46 1009.6
20260503190456 20 249 27.4 37.0 0.00 0.00 0.00 48 1009.8
20260503190026 20 251 25.7 33.8 0.00 0.00 0.00 45 1009.7
20260503185456 21 213 20.9 35.4 0.00 0.00 0.00 46 1009.7
20260503184956 20 252 32.2 40.2 0.00 0.00 0.00 47 1009.8
20260503184456 20 213 16.1 43.5 0.00 0.00 0.00 47 1010.0
20260503183956 20 186 12.9 43.5 0.00 0.00 0.00 47 1010.0
20260503183456 20 266 30.6 30.6 0.00 0.00 0.00 48 1010.0
20260503182956 20 228 9.7 29.0 0.00 0.00 0.00 47 1009.8
20260503182456 19 234 9.7 43.5 0.00 0.00 0.00 49 1009.9
20260503181956 19 227 14.5 43.5 0.00 0.00 0.00 47 1009.9
20260503181526 19 224 17.7 29.0 0.00 0.00 0.00 45 1009.9
20260503180956 20 223 16.1 30.6 0.00 0.00 0.00 46 1010.1
20260503180456 20 213 17.7 30.6 0.00 0.00 0.00 45 1010.2
20260503175956 20 219 19.3 30.6 0.00 0.00 0.00 46 1010.4
20260503175455 19 210 8.0 24.1 0.00 0.00 0.00 48 1010.3
20260503174025 18 213 3.2 22.5 0.00 0.00 0.00 50 1010.7
20260503172955 18 209 9.7 24.1 0.00 0.00 0.00 47 1010.6
20260503172455 18 224 17.7 27.4 0.00 0.00 0.00 47 1010.6
20260503171955 18 229 24.1 27.4 0.00 0.00 0.00 48 1010.9
20260503171455 18 183 4.8 16.1 0.00 0.00 0.00 49 1010.9
20260503171025 18 246 6.4 14.5 0.00 0.00 0.00 49 1011.0
20260503170455 18 224 8.0 20.9 0.00 0.00 0.00 51 1011.1